OPAL - Orbit

View from above orbital plane
View from above orbital plane
View from above satellite
View from above satellite

Ground track
Ground track

The orbit data is extracted from the following two-line orbital elements,

1 26063U 00004C   13138.11016244  .00000160  00000-0  74647-4 0  6868
2 26063 100.1935 207.4963 0036882 190.7335 227.1217 14.36181322697313
Epoch (UTC): 18 May 2013 02:38:38
Eccentricity: 0.0036882
inclination: 100.1935°
perigee height: 745 km
apogee height: 797 km
right ascension of ascending node: 207.4963°
argument of perigee: 190.7335°
revolutions per day: 14.36181322
mean anomaly at epoch: 227.1217°
orbit number at epoch: 69731

The dashed part of the orbit path shows where the satellite is in the earth's shadow,  

Developed and maintained by Chris Peat, Heavens-Above GmbH. Please read the updated FAQ before sending e-mail. Imprint. DLR